This demonstration page uses our WeatherBlox Daily Observations layout. Learn more.

Left ArrowRight Arrow

41.55636, -103.73856

Hourly Observations for April 5, 2020

Temp ( °F °C ) Dew Point ( °F °C ) Humidity (%) Winds ( mph kmh ) Pressure ( in mb ) Visibility ( mi km ) Precip ( " mm )
6:58 pm 18:58 Mostly Clear 52 11.1 18 -8 26 26 E 12 19 29.83 1010 10 16 0.00 0.00
7:58 pm 19:58 Mostly Cloudy 48 8.8 19 -7.2 32 32 ESE 10 17 29.84 1011 10 16 0.00 0.00
8:58 pm 20:58 Mostly Cloudy 47 8.6 22 -5.7 36 36 S 23 37 29.83 1010 10 16 0.00 0.00
9:58 pm 21:58 Clear 45 7.2 23 -4.8 43 43 S 28 44 29.81 1009 10 16 0.00 0.00
10:58 pm 22:58 Clear 43 6 25 -3.9 49 49 S 26 43 29.80 1009 10 16 0.00 0.00
11:58 pm 23:58 Clear 42 5.7 26 -3.6 52 52 S 31 50 29.78 1009 10 16 0.00 0.00
12:58 am 00:58 Mostly Cloudy 42 5.7 26 -3.6 52 52 SSW 31 50 29.77 1008 10 16 0.00 0.00
1:58 am 01:58 Clear 41 4.8 26 -3.4 56 56 SSW 28 44 29.76 1008 10 16 0.00 0.00
2:58 am 02:58 Clear 40 4.3 26 -3.4 58 58 SSW 26 43 29.74 1007 10 16 0.00 0.00
3:58 am 03:58 Clear 38 3.5 26 -3.3 61 61 SSW 26 43 29.74 1007 10 16 0.00 0.00
4:58 am 04:58 Clear 36 2.3 26 -3.5 66 66 NNW 5 7 29.78 1008 10 16 0.00 0.00
5:58 am 05:58 Clear 37 2.5 26 -3.4 65 65 SSW 10 17 29.76 1008 10 16 0.00 0.00
6:58 am 06:58 Sunny 34 1.1 26 -3.3 73 73 WSW 12 19 29.82 1010 10 16 0.00 0.00
7:58 am 07:58 Sunny 38 3.3 27 -2.7 65 65 SW 17 28 29.81 1009 10 16 0.00 0.00
8:58 am 08:58 Sunny 45 7.2 29 -1.4 55 55 SW 14 22 29.78 1008 10 16 0.00 0.00
9:58 am 09:58 Sunny 55 12.8 30 -1.1 38 38 E 3 6 29.75 1008 10 16 0.00 0.00
10:58 am 10:58 Sunny 62 16.9 29 -1.7 28 28 E 8 13 29.72 1007 10 16 0.00 0.00
11:58 am 11:58 Sunny 67 19.3 22 -5.3 19 19 SW 16 26 29.70 1006 10 16 0.00 0.00
12:58 pm 12:58 Sunny 70 20.9 21 -6.3 15 15 SSW 13 20 29.67 1005 10 16 0.00 0.00
1:58 pm 13:58 Partly Cloudy 71 21.5 20 -6.9 14 14 SW 18 30 29.65 1004 10 16 0.00 0.00
2:58 pm 14:58 Mostly Cloudy 69 20.4 19 -7.2 15 15 SW 18 30 29.64 1004 10 16 0.00 0.00
3:58 pm 15:58 Partly Cloudy 70 20.9 19 -7.2 14 14 WSW 17 28 29.64 1004 10 16 0.00 0.00
4:58 pm 16:58 Mostly Sunny 70 21 23 -4.8 17 17 SSW 20 31 29.64 1004 10 16 0.00 0.00
5:58 pm 17:58 Mostly Cloudy 65 18.6 24 -4.4 21 21 S 9 15 29.66 1004 10 16 0.00 0.00

Powered by AerisWeather